[[{"header":{"parameterUnit":"m.s-1","parameterCategory":1,"la1":30.2991,"la2":30.254,"lo1":-89.0895,"lo2":-89.0444,"dy":0.0017,"dx":0.0017,"nx":28,"ny":28,"refTime":"2025-07-27T21:00:00:Z","depth":0,"parameterNumber":2,"parameterNumberName":"U-component_of_WINDS"},"data":[0,0,0,0,0,0,0,0,0,0,0,0,0,0,0,0,0,0,0,0,0,0,0,0,0,0,0,0,0,0,0,0,0,0,0,0,0,0,0,0,0,0,0,0,0,0,0,0,0,0,0,0,0,0,0,0,0,0,2.9503,2.9503,0,2.9553,2.9553,2.9554,2.9476,2.9473,2.9471,2.9468,2.9521,2.9525,2.9529,0,0,0,0,0,0,0,0,0,0,0,0,0,2.9341,2.9345,2.9503,2.9503,2.9504,2.9553,2.9553,2.9554,2.9477,2.9473,2.947,2.9467,2.952,2.9525,2.9529,0,0,0,0,0,0,0,0,0,0,0,0,0,2.9404,2.9346,2.9503,2.9471,2.9469,2.9553,2.9553,2.9554,2.9477,2.9473,2.9469,2.9465,2.9519,2.9524,2.953,2.9648,0,0,2.9548,2.9551,0,0,0,0,0,0,0,0,2.94,2.941,2.9475,2.9473,2.9471,2.9504,2.9516,2.9586,2.9478,2.9474,2.9468,2.9463,2.9519,2.9525,2.9543,2.965,2.9652,2.9549,2.9552,2.9555,2.9556,0,0,0,0,0,0,0,2.9396,2.9407,2.9523,2.9476,2.9474,2.9455,2.9459,2.9529,2.9519,2.9474,2.9469,2.9476,2.9517,2.9538,2.9544,2.9653,2.9549,2.9554,2.9557,2.956,2.986,2.9864,0,0,0,0,0,0,2.9395,2.9404,2.9521,2.9524,2.9425,2.9461,2.9466,2.9498,2.9518,2.9517,2.9479,2.9472,2.9529,2.9537,2.9545,2.9685,2.9555,2.956,2.9564,2.9855,2.986,2.9865,0,0,0,0,0,0,2.9392,2.9406,2.9519,2.9462,2.9475,2.9468,2.9504,2.9501,2.9521,2.9521,2.9519,2.9502,2.9527,2.9537,2.9623,2.9685,2.9563,2.9568,2.985,2.9857,2.9863,2.9964,0,0,0,0,0,0,2.9388,2.9406,2.945,2.9464,2.9479,2.9596,2.9508,2.9505,2.9531,2.9522,2.9542,2.9541,2.9524,2.9614,2.9629,2.9691,2.9573,2.9844,2.9853,2.9861,2.9955,2.9973,2.9989,0,0,0,0,0,2.9382,2.9477,2.9453,2.9467,2.9534,2.9599,2.9608,2.9585,2.9536,2.9581,2.9581,2.9541,2.9676,2.9624,2.9639,2.9705,2.984,2.9851,2.986,2.9948,2.997,2.9989,0,0,0,0,0,0,2.9471,2.9478,2.9451,2.9553,2.9576,2.9586,2.9642,2.961,2.9647,2.9637,2.9608,2.9614,2.9706,2.9713,2.9655,2.9819,2.975,2.9764,2.9811,2.9832,2.9849,2.9846,2.9578,0,0,0,0,0,2.9502,2.9554,2.9558,2.9648,2.966,2.9649,2.9677,2.9658,2.968,2.969,2.9696,2.9721,2.9768,2.9801,2.9845,2.9955,2.9959,3.0008,3.0025,3.0039,3.0051,3.0111,3.0133,2.9898,2.9898,2.9898,0,0,2.9568,2.9578,2.9613,2.9666,2.9681,2.9736,2.9658,2.972,2.976,2.9699,2.9781,2.9787,2.9811,2.9911,2.9955,2.992,3.0117,3.0052,3.0063,3.0068,3.0124,3.0146,3.0166,2.9905,2.9904,2.9902,0,0,2.9716,2.9729,2.9805,2.9822,2.9846,2.9838,2.9856,2.9871,2.9872,2.9953,2.9909,2.9957,3.004,3.0059,3.008,3.0235,3.02,3.025,3.0339,3.0398,3.0417,3.0433,3.0489,3.0509,3.0263,3.0263,3.0263,0,2.9795,2.9875,2.9848,2.9913,2.9938,2.9884,2.9962,2.9979,3.0017,3.0036,2.9996,3.0099,3.0112,3.0215,3.0253,3.0271,3.0292,3.0249,3.0416,3.0432,3.0447,3.05,3.0521,3.0269,3.0268,3.0268,3.0267,0,2.9972,3.0028,3.0087,3.0124,3.0155,3.0226,3.021,3.0245,3.0223,3.0219,3.0303,3.0316,3.0362,3.0385,3.0364,3.0486,3.0463,3.042,3.035,3.0476,3.0525,3.0545,3.0278,3.0275,3.0274,3.0272,0,0,3.0178,3.0199,3.0221,3.0237,3.0259,3.0303,3.0371,3.0416,3.0447,3.0474,3.0531,3.0602,3.0563,3.0587,3.0567,3.0619,3.0742,3.0569,3.0569,3.0602,3.0877,3.091,3.0934,3.0717,3.0721,3.0724,3.0875,0,3.0326,3.0444,3.0421,3.0536,3.0589,3.0538,3.0598,3.0618,3.0617,3.0661,3.0659,3.071,3.0653,3.0668,3.0716,3.0716,3.0797,3.0705,3.0771,3.0774,3.0768,3.096,3.0995,3.1137,3.0894,3.0898,3.09,0,3.0515,3.0549,3.0669,3.0683,3.0704,3.0758,3.0797,3.084,3.0862,3.0857,3.0884,3.0855,3.0923,3.0852,3.0946,3.0884,3.091,3.0914,3.0919,3.0925,3.0846,3.0972,3.1181,3.1203,3.093,3.0928,3.0925,0,3.0655,3.0731,3.0812,3.0828,3.0846,3.0885,3.0895,3.0913,3.0941,3.0975,3.0993,3.1035,3.1058,3.1091,3.1074,3.1023,3.1172,3.1099,3.1171,3.1172,3.1206,3.1204,3.1423,3.1221,3.122,3.122,3.122,0,3.0823,3.0899,3.0875,3.0926,3.101,3.0983,3.1066,3.107,3.1086,3.1137,3.1096,3.1144,3.1118,3.1165,3.1153,3.1233,3.1244,3.1242,3.1238,3.1247,3.1247,3.1264,3.1254,3.1226,3.1224,3.1223,3.1222,0,3.0994,3.0981,3.1067,3.1077,3.1081,3.1143,3.1151,3.1199,3.1193,3.1258,3.1271,3.1263,3.1316,3.1302,3.136,3.1352,3.1454,3.1437,3.1446,3.1443,3.1516,3.151,3.1755,3.1786,3.1562,3.1564,3.1566,0,3.1103,3.116,3.1176,3.1207,3.1219,3.1269,3.1297,3.1273,3.1304,3.1333,3.1378,3.1426,3.1465,3.1552,3.1551,3.1595,3.158,3.1662,3.1586,3.1593,3.1582,3.158,3.1585,3.1678,3.1681,3.1683,3.1684,0,3.1299,3.1289,3.1331,3.1371,3.1406,3.1436,3.1463,3.149,3.1468,3.1505,3.1558,3.1588,3.1646,3.1696,3.1736,3.1746,3.1713,3.1708,3.1727,3.1737,3.1741,3.1741,3.1489,3.1703,3.1701,3.17,3.1699,3.1698,3.1443,3.1491,3.151,3.1558,3.1575,3.1601,3.1646,3.1646,3.1689,3.1735,3.1717,3.1779,3.1799,3.185,3.1865,3.1913,3.1882,3.1909,3.1917,3.1924,3.1934,3.1732,3.192,3.1919,3.1919,3.1919,3.1918,0,3.1637,3.1646,3.169,3.1728,3.1766,3.1729,3.1757,3.1792,3.1846,3.1867,3.1905,3.1967,3.2015,3.2018,3.2063,3.21,3.2086,3.2113,3.2111,3.2114,3.1959,3.1938,3.2124,3.2124,3.2124,3.2124,3.2124,3.2124,3.1742,3.1822,3.1815,3.1903,3.1912,3.1971,3.199,3.2014,3.2031,3.2101,3.214,3.2141,3.2156,3.2201,3.2244,3.2243,3.2262,3.2296,3.229,3.2145,3.2125,3.2105,3.2086,3.23,3.23,3.2441,3.2442,3.2444]},{"header":{"parameterUnit":"m.s-1","parameterCategory":1,"la1":30.2991,"la2":30.254,"lo1":-89.0895,"lo2":-89.0444,"dy":0.0017,"dx":0.0017,"nx":28,"ny":28,"refTime":"2025-07-27T21:00:00:Z","depth":0,"parameterNumber":3,"parameterNumberName":"V-component_of_WINDS"},"data":[0,0,0,0,0,0,0,0,0,0,0,0,0,0,0,0,0,0,0,0,0,0,0,0,0,0,0,0,0,0,0,0,0,0,0,0,0,0,0,0,0,0,0,0,0,0,0,0,0,0,0,0,0,0,0,0,0,0,-1.2938,-1.2938,0,-1.3005,-1.3006,-1.3007,-1.301,-1.301,-1.3009,-1.3008,-1.3078,-1.3081,-1.3083,0,0,0,0,0,0,0,0,0,0,0,0,0,-1.2812,-1.2815,-1.2938,-1.2938,-1.2939,-1.3005,-1.3006,-1.3007,-1.3011,-1.301,-1.3009,-1.3008,-1.3077,-1.308,-1.3083,0,0,0,0,0,0,0,0,0,0,0,0,0,-1.2872,-1.2815,-1.2937,-1.2949,-1.2951,-1.3005,-1.3006,-1.3007,-1.3011,-1.301,-1.3008,-1.3007,-1.3076,-1.308,-1.3084,-1.3132,0,0,-1.3096,-1.3098,0,0,0,0,0,0,0,0,-1.2869,-1.2877,-1.2946,-1.2948,-1.295,-1.2998,-1.2988,-1.3049,-1.3011,-1.2988,-1.3008,-1.3007,-1.3053,-1.3058,-1.3074,-1.3135,-1.3138,-1.3096,-1.3099,-1.31,-1.3101,0,0,0,0,0,0,0,-1.2865,-1.2874,-1.2965,-1.2947,-1.295,-1.2951,-1.2958,-1.2999,-1.3026,-1.299,-1.299,-1.2998,-1.3053,-1.307,-1.3075,-1.3139,-1.3096,-1.31,-1.3102,-1.3103,-1.3244,-1.3246,0,0,0,0,0,0,-1.2858,-1.287,-1.2962,-1.2967,-1.2906,-1.2954,-1.2962,-1.2984,-1.3026,-1.3031,-1.2999,-1.2998,-1.3064,-1.3071,-1.3078,-1.3137,-1.31,-1.3104,-1.3106,-1.3243,-1.3245,-1.3246,0,0,0,0,0,0,-1.2855,-1.2866,-1.296,-1.2919,-1.2931,-1.2958,-1.2982,-1.2986,-1.3003,-1.3033,-1.3038,-1.3011,-1.3063,-1.3072,-1.3119,-1.314,-1.3106,-1.3109,-1.3241,-1.3244,-1.3246,-1.3256,0,0,0,0,0,0,-1.2852,-1.2865,-1.2883,-1.2919,-1.2933,-1.2999,-1.2983,-1.2988,-1.3009,-1.3008,-1.3045,-1.305,-1.3063,-1.3113,-1.3122,-1.3145,-1.3112,-1.324,-1.3242,-1.3245,-1.3254,-1.3259,-1.3262,0,0,0,0,0,-1.2847,-1.2884,-1.2884,-1.2895,-1.2956,-1.3,-1.3008,-1.3022,-1.3011,-1.303,-1.3049,-1.3049,-1.3136,-1.3117,-1.3128,-1.3152,-1.3238,-1.3242,-1.3245,-1.3252,-1.3258,-1.3262,0,0,0,0,0,0,-1.285,-1.2888,-1.289,-1.2938,-1.2966,-1.3,-1.3024,-1.3027,-1.3058,-1.3056,-1.3072,-1.3081,-1.3127,-1.3144,-1.3123,-1.3201,-1.3186,-1.3191,-1.3188,-1.3193,-1.3197,-1.3192,-1.3115,0,0,0,0,0,-1.2856,-1.2888,-1.292,-1.296,-1.2974,-1.2997,-1.3017,-1.3025,-1.3054,-1.3066,-1.3089,-1.3117,-1.3151,-1.3173,-1.3206,-1.3257,-1.3265,-1.3279,-1.3283,-1.3286,-1.329,-1.332,-1.3326,-1.3257,-1.3257,-1.3257,0,0,-1.2869,-1.2894,-1.2914,-1.2962,-1.2984,-1.3017,-1.3007,-1.3042,-1.3068,-1.3071,-1.3117,-1.3135,-1.3168,-1.3217,-1.3239,-1.3232,-1.3312,-1.329,-1.3292,-1.3295,-1.3323,-1.333,-1.3336,-1.3259,-1.3258,-1.3258,0,0,-1.291,-1.2932,-1.2968,-1.2991,-1.3025,-1.304,-1.3049,-1.3083,-1.3096,-1.3141,-1.3145,-1.3175,-1.3233,-1.3257,-1.3277,-1.3328,-1.3329,-1.3338,-1.3359,-1.3387,-1.3393,-1.3398,-1.3417,-1.3423,-1.3343,-1.3343,-1.3343,0,-1.2922,-1.2973,-1.2987,-1.3023,-1.3044,-1.3049,-1.3086,-1.3108,-1.3151,-1.3166,-1.3157,-1.3231,-1.3253,-1.3308,-1.3321,-1.3336,-1.3348,-1.3334,-1.3391,-1.3396,-1.3401,-1.3419,-1.3426,-1.3344,-1.3343,-1.3343,-1.3343,0,-1.2986,-1.3021,-1.3047,-1.3088,-1.3112,-1.3149,-1.3169,-1.3192,-1.3198,-1.3214,-1.3261,-1.3289,-1.3328,-1.3341,-1.3348,-1.3398,-1.3393,-1.3387,-1.3373,-1.3408,-1.3426,-1.3433,-1.3345,-1.3345,-1.3344,-1.3344,0,0,-1.3031,-1.308,-1.3089,-1.3108,-1.3147,-1.3174,-1.3211,-1.3249,-1.3269,-1.3299,-1.3331,-1.338,-1.3376,-1.3398,-1.3407,-1.3432,-1.3472,-1.3424,-1.3425,-1.3433,-1.353,-1.3534,-1.3542,-1.3473,-1.3475,-1.3476,-1.3527,0,-1.3076,-1.3142,-1.3156,-1.3213,-1.3246,-1.3252,-1.3284,-1.3312,-1.3328,-1.3359,-1.3377,-1.3412,-1.3403,-1.3417,-1.3442,-1.3462,-1.3492,-1.3458,-1.3504,-1.3505,-1.3496,-1.3551,-1.3555,-1.3602,-1.3534,-1.3535,-1.3536,0,-1.3139,-1.317,-1.323,-1.3265,-1.3279,-1.3308,-1.3344,-1.3374,-1.3405,-1.3415,-1.3441,-1.3448,-1.3487,-1.3471,-1.3526,-1.3503,-1.3522,-1.3535,-1.3537,-1.3542,-1.3523,-1.3558,-1.3617,-1.3624,-1.3547,-1.3546,-1.3545,0,-1.3166,-1.3223,-1.3266,-1.3283,-1.3324,-1.3344,-1.3363,-1.3393,-1.3415,-1.3447,-1.3462,-1.3498,-1.3518,-1.3547,-1.3564,-1.355,-1.3618,-1.3602,-1.3628,-1.3628,-1.3643,-1.3641,-1.3707,-1.3654,-1.3654,-1.3654,-1.3654,0,-1.3215,-1.3252,-1.3279,-1.3306,-1.3348,-1.3364,-1.3405,-1.3423,-1.345,-1.3481,-1.3489,-1.3518,-1.3538,-1.3571,-1.3584,-1.3629,-1.3637,-1.3647,-1.3651,-1.3647,-1.3646,-1.366,-1.3658,-1.3656,-1.3656,-1.3655,-1.3655,0,-1.3253,-1.3272,-1.332,-1.3356,-1.3365,-1.3395,-1.3425,-1.3452,-1.3469,-1.3508,-1.3518,-1.3545,-1.3583,-1.3603,-1.3651,-1.366,-1.371,-1.3711,-1.37,-1.3701,-1.3726,-1.3724,-1.3803,-1.3815,-1.3754,-1.3755,-1.3755,0,-1.3283,-1.3312,-1.335,-1.3372,-1.339,-1.3424,-1.3447,-1.3465,-1.3488,-1.3527,-1.3549,-1.3588,-1.362,-1.3681,-1.3705,-1.3742,-1.3745,-1.377,-1.375,-1.3746,-1.3746,-1.3744,-1.3748,-1.3774,-1.3774,-1.3775,-1.3775,0,-1.3336,-1.3345,-1.3377,-1.3413,-1.344,-1.347,-1.3499,-1.3516,-1.3538,-1.3565,-1.3604,-1.3629,-1.3678,-1.3717,-1.3756,-1.3775,-1.378,-1.3781,-1.3789,-1.3786,-1.3778,-1.3784,-1.371,-1.3779,-1.3779,-1.3778,-1.3778,-1.3778,-1.3372,-1.3398,-1.3429,-1.3465,-1.3489,-1.3516,-1.3543,-1.3563,-1.3596,-1.3638,-1.3646,-1.3688,-1.372,-1.3773,-1.3794,-1.3827,-1.3822,-1.3834,-1.3837,-1.3839,-1.3841,-1.3773,-1.3834,-1.3834,-1.3834,-1.3834,-1.3834,0,-1.3425,-1.3446,-1.3479,-1.352,-1.3549,-1.3549,-1.3582,-1.3606,-1.3643,-1.3672,-1.3704,-1.3749,-1.3787,-1.3814,-1.3853,-1.3875,-1.3878,-1.3885,-1.3884,-1.3888,-1.3843,-1.3832,-1.3882,-1.3882,-1.3882,-1.3882,-1.3882,-1.3882,-1.3457,-1.3501,-1.3513,-1.357,-1.359,-1.3631,-1.365,-1.3675,-1.3699,-1.375,-1.3781,-1.3798,-1.3827,-1.3868,-1.3904,-1.3911,-1.3925,-1.3932,-1.3939,-1.3896,-1.3891,-1.3887,-1.3877,-1.3935,-1.3935,-1.3982,-1.3982,-1.3983]}]]